CANX-2

Satellite information

Favourite Embed

Satellite Type and Status

PAYLOADIN ORBIT

Key statistics

Satellite CANX-2 at a glance.

Uptime

6341

Days in orbit

Revolutions

≈ 15.0

Per day

Orbit

SSO

Sun Synchronous Orbit

Inclination

97.8

Latest

Satellite identification and parameters

Extended collection of information and parameters for CANX-2.

Object identification

Identified? True

Debris? False

Object name: CANX-2

International designator: 2008-021H

Object number (NORAD): 32790

Object ID (CCSDS): 32790

Country: CANADA (CA)

Current information (Y/N): Y

RCS size: SMALL

Orbital parameters

Period: 95.846 minutes

Inclination: 97.8293 deg

SMA: 6937.596 km

Apoapsis: 564.865 km

Periapsis: 554.057 km

RAAN: 219.4008 deg

Eccentricy: 0.00077899

Argument of periapsis: 286.4877 deg

Mean anomaly: 73.5491 deg

Mean motion: 15.02412762 rev/day

Mean motion (dot): 0.00005954 rev/day2

B* drag term: 0.00045373868 1/REarth

Two-line elements (TLE)

Creation date: Sept. 6, 2025, 2:09 a.m.

Reference frame: TEME

Reference center: EARTH

Epoch: Sept. 5, 2025, 9:44 p.m. UTC

TLE line 0: 0 CANX-2

TLE line 1: 1 32790U 08021H 25248.90599120 .00005954 00000-0 45374-3 0 9997

TLE line 2: 2 32790 97.8293 219.4008 0007790 286.4877 73.5491 15.02412762942071

Live tracking on map

Real-time ground track for satellite CANX-2.

In-orbit conjunctions

There are no conjunctions computed for CANX-2, at the moment. Check back to stay up to date, as we update our databases every day.

Go to all conjunctions

Associated space launch

Indian Earth observation satellite. Launched alongside 9 nanosatellites.

CANX-2 was lifted into orbit during the mission ‘PSLV | Cartosat 2A’, on board a PSLV space rocket.

The launch took place on April 28, 2008, 3:53 a.m. from Satish Dhawan Space Centre Second Launch Pad.

For more information about the launch, click the button.

Launch to space PSLV | Cartosat 2A
PSLV | Cartosat 2A

Agency: N/A

Status: Launch Successful

Launch date: April 28, 2008, 3:53 a.m. UTC

Rocket: PSLV

Launch pad: Satish Dhawan Space Centre Second Launch Pad

Location: Satish Dhawan Space Centre, India

...

Latest news about this satellite

There are no fresh news available about this satellite. Check back as we update our databases every day.


Newsletter sign-up

Weekly statistics, charts and insights to help you stay on top of the space industry.